Regional Weather Roundup
Issued by NWS Sterling, VA

Home | Current Version | Previous Version | Text Only | Print | Product List | Glossary Off
Versions: 1 2 3 4 5 6 7 8 9 10 11 12 13 14 15 16 17 18 19 20 21 22 23 24 25 26 27 28 29 30 31 32 33 34 35 36 37 38 39 40

000
ASUS41 KLWX 260510
RWRLWX

REGIONAL WEATHER ROUNDUP
NATIONAL WEATHER SERVICE BALTIMORE MD/WASHINGTON DC
1200 AM EST FRI DEC 26 2014

Note: "FAIR" indicates few or no clouds below 12,000 feet
with no significant weather and/or obstructions to visibility.
 TC=TEMPERATURE CELSIUS

 * =Non NWS site. Station does not report precipitation (e.g. rain,
    snow, etc.), thunder, or fog.

DCZ001-MDZ009-015-VAZ040>042-051-053>054-260600-
WASHINGTON METRO

CITY           SKY/WX    TMP DP  RH WIND       PRES   REMARKS
WASHINGTON NAT CLEAR     46  29  51 NW12      30.23F
DULLES         CLEAR     39  28  64 NW6       30.23F
ANDREWS AFB    CLEAR     42  30  62 NW9       30.21F
FT BELVOIR     CLEAR     44  29  56 VRB2      30.22F
QUANTICO       CLEAR     37  31  78 W3        30.24F
COLLEGE PARK*  CLEAR     39  32  75 CALM      30.22F
LEESBURG*      CLEAR     39  32  75 NW5       30.23F
MANASSAS*      CLEAR     30  28  93 CALM      30.22F
GAITHERSBURG*  CLEAR     34  28  80 CALM      30.25F

$$

MDZ006>007-011-014-260600-
BALTIMORE METRO

CITY           SKY/WX    TMP DP  RH WIND       PRES   REMARKS
BWI AIRPORT    CLEAR     37  29  72 W5        30.21F
MD SCIENCE CTR   N/A     40  30  67 MISG      30.22S
MARTIN STATE   CLEAR     37  32  81 CALM      30.24F
ANNAPOLIS      CLEAR     43  30  60 NW5       30.22F
FORT MEADE*    CLEAR     34  32  93 W5        30.24F

$$

MDZ012-015-019>023-260600-
MARYLAND EASTERN SHORE

CITY           SKY/WX    TMP DP  RH WIND       PRES   REMARKS
OCEAN CITY     CLEAR     32  30  92 CALM      30.20F
SALISBURY      CLEAR     36  31  82 CALM      30.21F
BAY BRIDGE AP*   N/A     43  32  65 W7        30.23F
CAMBRIDGE*     CLEAR     36  34  93 CALM      30.21F
EASTON*        CLEAR     43  34  69 N7        30.25F

$$

MDZ017>025-260600-
SOUTHERN MARYLAND

CITY           SKY/WX    TMP DP  RH WIND       PRES   REMARKS
PATUXENT RIVER CLEAR     37  31  78 NW5       30.22S
ST INIGOES     CLEAR     34  30  85 CALM      30.22S
LEONARDTOWN*   CLEAR     34  30  86 CALM      30.24S

$$

MDZ003>005-260600-
NORTH CENTRAL MARYLAND

CITY           SKY/WX    TMP DP  RH WIND       PRES   REMARKS
FREDERICK*     CLEAR     36  28  75 SW5       30.25S
HAGERSTOWN APT CLEAR     39  28  64 SW6       30.21S
WESTMINSTER*   PTCLDY    37  28  70 W5        30.20S

$$

MDZ501>502-260600-
WESTERN MARYLAND

CITY           SKY/WX    TMP DP  RH WIND       PRES   REMARKS
OAKLAND*       CLOUDY    32 N/A N/A W10G20    30.16F WCI  24
CUMBERLAND*    CLEAR     41  28  60 CALM      30.27R

$$

VAZ025>031-260600-
SHENANDOAH VALLEY

CITY           SKY/WX    TMP DP  RH WIND       PRES   REMARKS
WINCHESTER*    CLEAR     34  27  75 NW3       30.21F
FRONT ROYAL*   FAIR      32  28  86 CALM      30.21S
LURAY*         FAIR      32  32 100 CALM      30.21F
NEW MARKET*    FAIR      28  27  94 CALM      30.21F
STAUNTON*      CLEAR     29  24  82 CALM      30.22S
WAYNESBORO*    FAIR      35  27  72 SW6       30.20R

$$

WVZ021-048>050-054>055-260600-
EASTERN WEST VIRGINIA PANHANDLE

CITY           SKY/WX    TMP DP  RH WIND       PRES   REMARKS
MARTINSBURG    CLEAR     38  27  64 SW3       30.22F
PETERSBURG*    PTCLDY    28  26  94 CALM      30.22F

$$

VAZ036>039-050-260600-
CENTRAL FOOTHILLS

CITY           SKY/WX    TMP DP  RH WIND       PRES   REMARKS
CHARLOTTESVILL CLEAR     39  28  64 CALM      30.20F
CULPEPER*      CLEAR     28  28 100 CALM      30.22F
ORANGE*        CLEAR     32  30  93 CALM      30.23S
GORDONSVILLE*  FAIR      31  28  87 CALM      30.21S
WARRENTON*     FAIR      30  30 100 CALM      30.21F

$$

VAZ055>057-260600-
NORTH AND CENTRAL PIEDMONT

CITY           SKY/WX    TMP DP  RH WIND       PRES   REMARKS
FREDERICKSBRG* CLEAR     34  33  99 CALM      30.22F
STAFFORD*      CLEAR     29  29 100 CALM      30.27S

$$

NCZ024-NYZ072-PAZ021-071-VAZ022-071-260600-
OTHER REGIONAL OBSERVATIONS

CITY           SKY/WX    TMP DP  RH WIND       PRES   REMARKS
NEW YORK CITY  CLEAR     45  28  51 MISG      30.14R
PHILADELPHIA   CLEAR     40  31  70 W9        30.21R
PITTSBURGH     CLOUDY    38  28  67 SW9       30.20F
ROANOKE        CLEAR     35  27  72 W5        30.26R
RICHMOND       CLEAR     41  31  67 CALM      30.23S
RALEIGH        CLEAR     36  32  85 E3        30.26F

$$

ANZ530>537-260600-
MARINE OBSERVATIONS

STATION/POSITION TIME  TEMP    WIND        PRES
                       AIR SEA DIR/SP/G
                 (UTC) (F)     (DEG/KT/KT) (MB)
THOMAS PT LIGHT  0500   44 43  340/ 13/ 14 1024.1F
BALT KEY BRIDGE  0500   42     240/  7/  9 1023.4F
COVE POINT       0500   43     320/  5/  6 1023.4S
LEWISETTA        0500   40 44     CALM     1023.3R
SOLOMONS ISLAND  0500      44                N/A
PINEY POINT      0500          350/  6/  6   N/A

$$



USA.gov is the U.S. government's official web portal to all federal, state and local government web resources and services.